IRIDIUM 96 [P]

Last updated on Wed May 30 2018 00:19:59 GMT+0000 (Coordinated Universal Time)

1 27376U 02005E 18149.53937136 .00017031 -88521-6 17907-3 0 9992 2 27376 86.3775 164.2786 0287813 285.5135 71.4504 15.26720868267804

Satellite not in orbit